Location: ???????
(55.4362°N, 38.1183°E)
Time: 12:20:26
(UTC+00:00)

deb Delta 139 - Pass Details

Date: 01 February 2022
Orbit: 790 x 1093 km, 98.7° (Epoch: 23 May)

Event Time Altitude Azimuth Distance (km) Brightness Sun altitude
Rises 14:33:32 0° 167° (SSE) 3,358 ? -4.8°
Reaches altitude 10° 14:35:48 10° 169° (S) 2,460 ? -5.1°
Maximum altitude 14:41:16 76° 255° (WSW) 919 ? -5.8°
Drops below altitude 10° 14:47:13 10° 342° (NNW) 2,668 ? -6.6°
Sets 14:49:46 0° 344° (NNW) 3,664 ? -6.9°
